Location: Ferchesar
(52.6477°N, 12.4298°E)
Time: 11:34:57
(UTC+01:00)

Vanguard 2 - All Passes

Search period start: 01 March 2021 00:00
Search period end: 11 March 2021 00:00
Orbit: 552 x 2938 km, 32.9° (Epoch: 28 February)

Date Brightness Start Highest point End Pass type
(mag) Time Alt. Az. Time Alt. Az. Time Alt. Az.
01 Mar - 02:27:27 10° SSE 02:34:45 15° SE 02:42:43 10° ESE visible
01 Mar - 04:30:15 10° SSW 04:43:15 31° SSE 04:57:11 10° ESE visible
01 Mar - 06:38:11 10° WSW 06:53:10 37° S 07:07:20 10° ESE daylight
01 Mar - 08:48:56 10° WSW 09:02:55 30° SSW 09:14:47 10° SSE daylight
01 Mar - 11:03:57 10° WSW 11:11:01 14° SW 11:17:16 10° SSW daylight
02 Mar - 02:42:24 10° S 02:51:35 19° SE 03:01:57 10° ESE visible
02 Mar - 04:47:00 10° SW 05:00:26 33° SSE 05:14:56 10° ESE visible
02 Mar - 06:55:33 10° WSW 07:10:28 37° S 07:24:37 10° SE daylight
02 Mar - 09:06:50 10° WSW 09:20:00 27° SSW 09:31:22 10° SSE daylight
02 Mar - 11:26:10 10° SW 11:27:43 10° SW 11:29:14 10° SW daylight
03 Mar - 02:58:10 10° S 03:08:29 23° SE 03:20:28 10° ESE visible
03 Mar - 05:03:57 10° SW 05:17:40 36° SSE 05:32:32 10° ESE visible
03 Mar - 07:13:02 10° WSW 07:27:45 36° SSW 07:41:44 10° SE daylight
03 Mar - 09:24:58 10° WSW 09:37:00 23° SW 09:47:35 10° S daylight
04 Mar - 01:16:52 10° SE 01:17:52 10° SE 01:18:52 10° SE visible
04 Mar - 03:14:25 10° SSW 03:25:29 27° SSE 03:38:35 10° ESE visible
04 Mar - 05:21:05 10° SW 05:34:57 37° S 05:50:00 10° ESE visible
04 Mar - 07:30:38 10° WSW 07:44:59 33° SSW 07:58:40 10° SE daylight
04 Mar - 09:43:31 10° WSW 09:53:55 19° SW 10:03:17 10° S daylight
05 Mar - 01:28:35 10° SSE 01:34:34 14° SE 01:41:23 10° ESE visible
05 Mar - 03:31:01 10° SSW 03:42:34 30° SSE 03:56:28 10° ESE visible
05 Mar - 05:38:21 10° WSW 05:52:15 37° S 06:07:19 10° ESE visible
05 Mar - 07:48:23 10° WSW 08:02:10 30° SSW 08:15:22 10° SSE daylight
05 Mar - 10:02:48 10° WSW 10:10:45 15° SW 10:18:08 10° SSW daylight
06 Mar - 01:43:40 10° S 01:51:22 18° SE 02:00:36 10° ESE visible
06 Mar - 03:47:52 10° SW 03:59:43 33° SSE 04:14:10 10° ESE visible
06 Mar - 05:55:46 10° WSW 06:09:33 36° S 06:24:32 10° SE visible
06 Mar - 08:06:19 10° WSW 08:19:17 27° SSW 08:31:47 10° SSE daylight
06 Mar - 10:24:36 10° WSW 10:27:30 11° SW 10:30:20 10° SW daylight
07 Mar - 01:59:34 10° S 02:08:15 22° SE 02:19:05 10° ESE visible
07 Mar - 04:04:54 10° SW 04:16:57 35° SSE 04:31:43 10° ESE visible
07 Mar - 06:13:16 10° WSW 06:26:51 35° S 06:41:34 10° SE daylight
07 Mar - 08:24:31 10° WSW 08:36:20 23° SSW 08:47:49 10° S daylight
08 Mar - 02:15:57 10° SSW 02:25:14 25° SSE 02:37:10 10° ESE visible
08 Mar - 04:22:05 10° SW 04:34:13 35° S 04:49:09 10° ESE visible
08 Mar - 06:30:55 10° WSW 06:44:07 32° SSW 06:58:24 10° SE daylight
08 Mar - 08:43:11 10° WSW 08:53:19 19° SW 09:03:15 10° S daylight
09 Mar - 00:30:58 10° SSE 00:34:51 12° SE 00:39:15 10° ESE visible
09 Mar - 02:32:38 10° SSW 02:42:19 28° SSE 02:55:02 10° ESE visible
09 Mar - 04:39:25 10° WSW 04:51:32 35° S 05:06:26 10° ESE visible
09 Mar - 06:48:43 10° WSW 07:01:20 29° SSW 07:14:57 10° SSE daylight
09 Mar - 09:02:44 10° WSW 09:10:13 14° SW 09:17:38 10° SSW daylight
10 Mar - 00:45:52 10° S 00:51:40 16° SE 00:58:45 10° ESE visible
10 Mar - 02:49:33 10° SW 02:59:28 30° SSE 03:12:42 10° ESE visible
10 Mar - 04:56:51 10° WSW 05:08:51 34° S 05:23:34 10° SE visible
10 Mar - 07:06:43 10° WSW 07:18:31 25° SSW 07:31:11 10° SSE daylight
